Location: Waco, TX
(31.5480°N, 97.1670°W)
Time: 01:42:58
(UTC-06:00)

ISS - Pass Details

Date: 29 January 2021
Orbit: 417 x 422 km, 51.6° (Epoch: 09 March)

Event Time Altitude Azimuth Distance (km) Brightness Sun altitude
Rises 15:32:11 0° 267° (W) 2,357 0.8 26.0°
Reaches altitude 10° 15:35:07 10° 296° (WNW) 1,497 -0.6 25.6°
Maximum altitude 15:36:53 14° 327° (NNW) 1,304 -1.3 25.3°
Drops below altitude 10° 15:38:39 10° 359° (N) 1,502 -1.2 25.0°
Sets 15:41:36 0° 27° (NNE) 2,370 -0.5 24.6°
